Regional Weather Roundup
Issued by NWS Spokane, WA

Home | Current Version | Previous Version | Text Only | Print | Product List | Glossary On
Versions: 1 2 3 4 5 6 7 8 9 10 11 12 13 14 15 16 17 18 19 20 21 22 23 24 25 26 27 28 29 30 31 32 33 34 35 36 37 38 39 40 41 42 43 44 45 46 47 48 49 50
211
NZUS01 KOTX 241157
RWROTX
EASTERN WASHINGTON/NORTHERN IDAHO ROUNDUP
NATIONAL WEATHER SERVICE, SPOKANE WA
500 AM PDT TUE MAY 24 2016

Note: "fair" indicated few or no clouds below 12,000 feet with no
significant weather and/or obstructions to visibility.

...NORTHEAST WASHINGTON AND NORTHERN IDAHO PANHANDLE...

CITY           SKY/WX    TMP DP  RH WIND       PRES   REMARKS
SPOKANE INTL   CLOUDY    49  46  90 NE3       29.87S
SPOKANE DOWNTO CLOUDY    51  48  89 CALM      29.88S
DEER PARK      CLOUDY    47  45  93 MISG      29.89R

...SOUTHEAST WASHINGTON AND SOUTHERN IDAHO PANHANDLE...

CITY           SKY/WX    TMP DP  RH WIND       PRES   REMARKS
WALLA WALLA    MOCLDY    52  43  71 S7        29.89R
PULLMAN/MOSCOW LGT RAIN  48  43  82 E9        29.90S
LOWELL           N/A     47  45  93 CALM      29.93S

...COLUMBIA BASIN...

CITY           SKY/WX    TMP DP  RH WIND       PRES   REMARKS
EPHRATA        CLOUDY    55  41  59 N9        29.83S
MOSES LAKE     CLOUDY    52  46  80 N3        29.85R
TRI CITIES     PTCLDY    53  45  74 E3        29.87R
HERMISTON      CLEAR     45  41  86 CALM      29.88R
PENDLETON      CLEAR     50  40  68 S6        29.89S

...EAST SLOPES CASCADES...

CITY           SKY/WX    TMP DP  RH WIND       PRES   REMARKS
THE DALLES     PTCLDY    57  47  69 NW6       29.88F
YAKIMA         CLEAR     43  36  76 W3        29.87S
ELLENSBURG     CLEAR     51  40  65 NW14      29.86R
OMAK           PTCLDY    49  43  80 NW6       29.85R

...SOUTHERN BRITISH COLUMBIA...

CITY           SKY/WX    TMP DP  RH WIND       PRES   REMARKS
CRANBROOK      FOG       43  41  93 E3        29.90R VSB 1

...WESTERN MONTANA...

CITY           SKY/WX    TMP DP  RH WIND       PRES   REMARKS
MISSOULA       LGT RAIN  43  41  93 CALM      29.93R

...NEIGHBORING CITIES...

CITY           SKY/WX    TMP DP  RH WIND       PRES   REMARKS
SEATTLE        CLOUDY    57  49  74 NE5       29.95S



USA.gov is the U.S. government's official web portal to all federal, state and local government web resources and services.